[[{"header":{"parameterUnit":"m.s-1","parameterCategory":1,"la1":30.2991,"la2":30.254,"lo1":-89.0895,"lo2":-89.0444,"dy":0.0017,"dx":0.0017,"nx":28,"ny":28,"refTime":"2023-04-27T21:00:00:Z","depth":0,"parameterNumber":2,"parameterNumberName":"U-component_of_WINDS"},"data":[0,0,0,0,0,0,0,0,0,0,0,0,0,0,0,0,0,0,0,0,0,0,0,0,0,0,0,0,0,0,0,0,0,0,0,0,0,0,0,0,0,0,0,0,0,0,0,0,0,0,0,0,0,0,0,0,0,0,1.3507,1.3514,0,1.4125,1.4132,1.4139,1.4244,1.4239,1.4233,1.4228,1.4902,1.4924,1.4947,0,0,0,0,0,0,0,0,0,0,0,0,0,1.2457,1.2476,1.3507,1.3514,1.3522,1.4124,1.4132,1.4141,1.4245,1.4239,1.4232,1.4226,1.4894,1.4921,1.4949,0,0,0,0,0,0,0,0,0,0,0,0,0,1.2979,1.2482,1.3505,1.3645,1.3664,1.4122,1.4133,1.4143,1.4247,1.4238,1.423,1.4223,1.4885,1.4919,1.4953,1.5327,0,0,1.5058,1.5073,0,0,0,0,0,0,0,0,1.2949,1.3018,1.3617,1.3637,1.3658,1.4098,1.4009,1.4542,1.4249,1.4027,1.4228,1.4219,1.4644,1.4697,1.4833,1.5358,1.5387,1.5061,1.5082,1.5097,1.5106,0,0,0,0,0,0,0,1.2913,1.2992,1.3753,1.3626,1.3651,1.3691,1.3756,1.4111,1.4375,1.4046,1.4054,1.4124,1.4654,1.4799,1.4849,1.5397,1.506,1.5091,1.5112,1.5125,1.6271,1.628,0,0,0,0,0,0,1.2846,1.2961,1.3733,1.3771,1.3275,1.3716,1.3789,1.3966,1.437,1.4423,1.413,1.4126,1.4744,1.4809,1.4873,1.5346,1.5096,1.5129,1.5148,1.6261,1.6273,1.6284,0,0,0,0,0,0,1.2823,1.2914,1.3708,1.3369,1.3472,1.3742,1.3941,1.3983,1.4128,1.4434,1.4485,1.4228,1.474,1.4825,1.5212,1.5371,1.5144,1.5175,1.625,1.6265,1.6278,1.6289,0,0,0,0,0,0,1.2792,1.2904,1.304,1.337,1.349,1.4025,1.395,1.4,1.4182,1.4183,1.4539,1.4591,1.4741,1.516,1.5247,1.5414,1.5202,1.6237,1.6256,1.6274,1.6276,1.6302,1.6324,0,0,0,0,0,1.2754,1.3026,1.3046,1.3139,1.3663,1.4034,1.4104,1.4259,1.4193,1.434,1.4537,1.458,1.5335,1.5199,1.5297,1.5477,1.6228,1.6251,1.6272,1.6265,1.6297,1.6323,0,0,0,0,0,0,1.2724,1.3072,1.3099,1.3482,1.3725,1.405,1.4239,1.4287,1.4565,1.4557,1.4749,1.4829,1.5209,1.5381,1.5222,1.5865,1.5779,1.5822,1.574,1.5773,1.5796,1.5754,1.5231,0,0,0,0,0,1.2757,1.3015,1.3312,1.3623,1.3742,1.3968,1.4136,1.4232,1.4499,1.4607,1.4833,1.5101,1.54,1.5594,1.5885,1.6296,1.6384,1.6469,1.6493,1.6511,1.6551,1.6793,1.6838,1.6356,1.6356,1.6355,0,0,1.2839,1.3061,1.3215,1.3622,1.3822,1.41,1.4056,1.435,1.4563,1.4657,1.5036,1.5209,1.5522,1.5925,1.6114,1.6081,1.6701,1.6539,1.6551,1.6583,1.682,1.6865,1.6906,1.6371,1.6368,1.6366,0,0,1.313,1.3316,1.3599,1.3798,1.4096,1.4244,1.4311,1.4629,1.4745,1.5123,1.5201,1.5462,1.5969,1.6191,1.6371,1.6741,1.6797,1.683,1.6964,1.7196,1.7235,1.727,1.7415,1.7463,1.6866,1.6866,1.6866,0,1.3198,1.3605,1.3743,1.4033,1.4216,1.4296,1.4593,1.4783,1.5168,1.5299,1.5249,1.589,1.6106,1.6566,1.6655,1.6793,1.6889,1.6798,1.7214,1.7252,1.7287,1.7428,1.748,1.6869,1.6869,1.6868,1.6868,0,1.3679,1.3961,1.4156,1.451,1.4713,1.5006,1.5201,1.5392,1.547,1.5627,1.6019,1.6277,1.6626,1.674,1.6823,1.7216,1.7186,1.7173,1.7094,1.7333,1.747,1.7524,1.6874,1.6873,1.6872,1.6871,0,0,1.398,1.4398,1.447,1.4635,1.4967,1.5196,1.5495,1.5822,1.5989,1.6249,1.6517,1.6941,1.6931,1.7135,1.7243,1.7445,1.7737,1.7411,1.7421,1.7474,1.82,1.8217,1.8276,1.7767,1.7778,1.7787,1.8178,0,1.432,1.4843,1.4975,1.5429,1.5698,1.5776,1.604,1.628,1.6434,1.6696,1.6871,1.7173,1.713,1.7255,1.7456,1.7657,1.7888,1.7629,1.8036,1.8049,1.7968,1.8346,1.8366,1.8723,1.8231,1.824,1.8246,0,1.479,1.5047,1.5522,1.5822,1.5941,1.6173,1.6487,1.6729,1.7008,1.7107,1.7329,1.7418,1.7749,1.7638,1.8104,1.7925,1.8099,1.8222,1.824,1.8298,1.8172,1.8427,1.8839,1.8898,1.8329,1.8323,1.8317,0,1.4977,1.5442,1.5789,1.5926,1.6281,1.6444,1.6603,1.687,1.706,1.7337,1.7465,1.778,1.7957,1.8205,1.8382,1.8283,1.8838,1.874,1.8944,1.8941,1.9071,1.9064,1.9531,1.9156,1.9155,1.9154,1.9153,0,1.5352,1.5644,1.5878,1.6093,1.6426,1.6577,1.6908,1.7071,1.7308,1.7567,1.7654,1.7899,1.8108,1.8386,1.8525,1.8898,1.8974,1.9075,1.9113,1.9076,1.9065,1.9205,1.9191,1.9169,1.9165,1.9163,1.916,0,1.5624,1.5789,1.6175,1.6474,1.6556,1.679,1.7055,1.7275,1.7425,1.7753,1.7839,1.8084,1.8414,1.8608,1.9029,1.9123,1.954,1.9559,1.9443,1.9463,1.9661,1.9646,2.0248,2.0341,1.9888,1.9892,1.9895,0,1.5859,1.6084,1.6403,1.6575,1.6732,1.701,1.72,1.7359,1.7557,1.7889,1.8073,1.8403,1.8679,1.9204,1.943,1.9753,1.9791,1.9978,1.9842,1.9801,1.9813,1.9803,1.9833,2.0008,2.0012,2.0015,2.0018,0,1.6264,1.6333,1.6596,1.689,1.7111,1.7353,1.7596,1.7736,1.7938,1.8158,1.8488,1.87,1.9123,1.9458,1.9799,1.9978,2.0041,2.0055,2.0123,2.0098,2.0027,2.0082,1.9523,2.0046,2.0043,2.0041,2.0039,2.0038,1.6537,1.6742,1.6998,1.7292,1.7486,1.771,1.7932,1.8105,1.8379,1.8728,1.8806,1.9159,1.9439,1.9901,2.0086,2.0374,2.0346,2.0439,2.0466,2.0491,2.0504,1.9964,2.0435,2.0435,2.0434,2.0434,2.0434,0,1.6959,1.7124,1.739,1.772,1.7953,1.7966,1.8236,1.8437,1.874,1.8987,1.9251,1.9638,1.9961,2.0206,2.0541,2.0725,2.0763,2.081,2.0808,2.0851,2.0503,2.0418,2.0775,2.0775,2.0774,2.0774,2.0774,2.0774,1.7207,1.7558,1.7658,1.8112,1.828,1.8615,1.8769,1.8981,1.9179,1.9601,1.9865,2.0015,2.0269,2.0621,2.0924,2.0989,2.1117,2.1162,2.1234,2.091,2.0874,2.0839,2.0761,2.1184,2.1184,2.156,2.1563,2.1566]},{"header":{"parameterUnit":"m.s-1","parameterCategory":1,"la1":30.2991,"la2":30.254,"lo1":-89.0895,"lo2":-89.0444,"dy":0.0017,"dx":0.0017,"nx":28,"ny":28,"refTime":"2023-04-27T21:00:00:Z","depth":0,"parameterNumber":3,"parameterNumberName":"V-component_of_WINDS"},"data":[0,0,0,0,0,0,0,0,0,0,0,0,0,0,0,0,0,0,0,0,0,0,0,0,0,0,0,0,0,0,0,0,0,0,0,0,0,0,0,0,0,0,0,0,0,0,0,0,0,0,0,0,0,0,0,0,0,0,4.4445,4.4442,0,4.4173,4.417,4.4167,4.3859,4.3854,4.3849,4.3845,4.3571,4.3568,4.3565,0,0,0,0,0,0,0,0,0,0,0,0,0,4.4696,4.4693,4.4445,4.4442,4.4438,4.4174,4.417,4.4166,4.3859,4.3854,4.3848,4.3843,4.3572,4.3569,4.3565,0,0,0,0,0,0,0,0,0,0,0,0,0,4.4522,4.4692,4.4445,4.4253,4.4233,4.4174,4.417,4.4165,4.3861,4.3854,4.3847,4.384,4.3573,4.3569,4.3564,4.3674,0,0,4.3551,4.3549,0,0,0,0,0,0,0,0,4.4533,4.4513,4.4285,4.4266,4.4244,4.4042,4.4157,4.4001,4.3862,4.4002,4.3845,4.3837,4.3734,4.3716,4.368,4.3662,4.365,4.355,4.3547,4.3546,4.3544,0,0,0,0,0,0,0,4.4545,4.4523,4.4337,4.4282,4.4257,4.4179,4.4147,4.4126,4.391,4.399,4.3966,4.3938,4.3721,4.3685,4.3671,4.3646,4.355,4.3546,4.3544,4.3542,4.3696,4.3702,0,0,0,0,0,0,4.4586,4.4535,4.4346,4.4329,4.4374,4.4181,4.4144,4.4114,4.3909,4.3872,4.3944,4.3925,4.3696,4.3677,4.3661,4.3771,4.3546,4.3541,4.3539,4.3689,4.3697,4.3705,0,0,0,0,0,0,4.4592,4.4572,4.4357,4.4426,4.4392,4.4184,4.4152,4.4113,4.4076,4.3875,4.3835,4.3948,4.369,4.3667,4.3671,4.3758,4.3539,4.3535,4.3681,4.3692,4.3701,4.3998,0,0,0,0,0,0,4.4601,4.4576,4.4617,4.4429,4.439,4.4374,4.4157,4.4112,4.4068,4.404,4.3867,4.3832,4.3683,4.368,4.3667,4.3747,4.3532,4.3672,4.3686,4.3698,4.398,4.4017,4.4049,0,0,0,0,0,4.4611,4.4714,4.4621,4.46,4.4437,4.438,4.4357,4.4182,4.4077,4.4115,4.3985,4.3838,4.375,4.3683,4.3666,4.3747,4.3666,4.3682,4.3697,4.3964,4.401,4.4048,0,0,0,0,0,0,4.4921,4.4686,4.458,4.4625,4.4525,4.4328,4.4372,4.4237,4.4166,4.4143,4.3929,4.3892,4.3922,4.3833,4.3763,4.3838,4.3686,4.3699,4.3895,4.3937,4.3971,4.3992,4.3528,0,0,0,0,0,4.4994,4.4968,4.4763,4.4823,4.4777,4.4584,4.4553,4.4425,4.4313,4.427,4.414,4.4037,4.3984,4.3955,4.3897,4.3964,4.3919,4.401,4.4045,4.4075,4.4089,4.4112,4.4148,4.3755,4.3755,4.3754,0,0,4.5147,4.5014,4.5011,4.4882,4.4788,4.4764,4.455,4.4536,4.4515,4.4267,4.4262,4.4163,4.4033,4.4068,4.4077,4.3996,4.4186,4.4094,4.4119,4.4117,4.4131,4.4169,4.4202,4.3765,4.3763,4.3762,0,0,4.5411,4.5309,4.5345,4.5254,4.5114,4.4983,4.4992,4.4814,4.4738,4.4728,4.454,4.4512,4.4429,4.4342,4.4287,4.451,4.4371,4.4497,4.468,4.4705,4.4736,4.4762,4.4839,4.4869,4.4511,4.4512,4.4512,0,4.5618,4.5574,4.5381,4.5375,4.5322,4.5092,4.5125,4.5047,4.4897,4.4865,4.4775,4.466,4.4558,4.4566,4.462,4.4584,4.4585,4.4517,4.4747,4.4771,4.4793,4.4864,4.4894,4.4528,4.4526,4.4524,4.4523,0,4.5834,4.5806,4.5852,4.5708,4.5659,4.5675,4.5481,4.5455,4.533,4.5208,4.5199,4.5065,4.4973,4.4965,4.4846,4.4955,4.4908,4.4786,4.4629,4.485,4.4913,4.4938,4.4551,4.4545,4.454,4.4536,0,0,4.6293,4.6036,4.6056,4.5985,4.581,4.5785,4.5786,4.5693,4.5673,4.5575,4.557,4.55,4.5383,4.5321,4.5188,4.521,4.539,4.5082,4.5076,4.5143,4.5498,4.5592,4.5626,4.5295,4.5299,4.5303,4.5508,0,4.6525,4.6514,4.6336,4.6375,4.6344,4.6121,4.6121,4.6013,4.5898,4.5853,4.5724,4.5678,4.5528,4.5488,4.55,4.5366,4.5458,4.5348,4.5286,4.5287,4.5327,4.5659,4.576,4.596,4.5531,4.5536,4.5538,0,4.6798,4.6711,4.6746,4.6563,4.6543,4.6548,4.6444,4.6405,4.6276,4.6189,4.6117,4.5963,4.5949,4.58,4.5775,4.5705,4.5667,4.5597,4.56,4.5589,4.5428,4.5656,4.602,4.6051,4.5576,4.5573,4.557,0,4.7127,4.7019,4.7023,4.697,4.6758,4.6765,4.6677,4.654,4.6493,4.6403,4.6369,4.628,4.6231,4.6163,4.5989,4.5897,4.5983,4.582,4.5909,4.5914,4.594,4.5941,4.6303,4.5917,4.5916,4.5916,4.5915,0,4.7406,4.7436,4.7167,4.7172,4.7196,4.6989,4.7019,4.6909,4.6788,4.6764,4.6565,4.6548,4.6318,4.6273,4.6135,4.6134,4.6114,4.6042,4.6005,4.606,4.6069,4.6034,4.6016,4.5924,4.5922,4.592,4.5919,0,4.778,4.7602,4.7592,4.7389,4.7338,4.7365,4.719,4.7184,4.7052,4.7025,4.7006,4.6801,4.6737,4.6554,4.6445,4.6352,4.6389,4.6321,4.6434,4.641,4.6509,4.6502,4.6862,4.6897,4.6491,4.6495,4.6498,0,4.7971,4.7987,4.7784,4.7752,4.7672,4.7625,4.7574,4.7369,4.7324,4.7173,4.7184,4.7103,4.7028,4.6935,4.6776,4.6689,4.6616,4.6747,4.6602,4.6654,4.6616,4.6617,4.6616,4.6781,4.6786,4.6791,4.6794,0,4.8327,4.8236,4.817,4.8072,4.8016,4.793,4.7832,4.7818,4.7587,4.7546,4.7476,4.7418,4.7301,4.7223,4.7109,4.7016,4.6867,4.684,4.6856,4.6913,4.6977,4.6941,4.652,4.6834,4.683,4.6827,4.6825,4.6824,4.8613,4.8616,4.8471,4.8403,4.8306,4.8217,4.8199,4.8063,4.8001,4.789,4.7771,4.7714,4.7575,4.7407,4.7324,4.7274,4.7195,4.7219,4.7225,4.7234,4.7258,4.6984,4.7253,4.7251,4.725,4.7249,4.7248,0,4.8959,4.8852,4.8791,4.8658,4.8603,4.8463,4.8345,4.8309,4.826,4.8143,4.8071,4.7988,4.7908,4.7739,4.7643,4.7635,4.7564,4.7617,4.7616,4.7596,4.7335,4.733,4.7676,4.7676,4.7676,4.7676,4.7676,4.7676,4.9132,4.9127,4.9018,4.896,4.8852,4.8793,4.8737,4.8653,4.8558,4.8473,4.8405,4.8294,4.8154,4.8045,4.7964,4.7916,4.789,4.7965,4.7896,4.7656,4.7615,4.7577,4.7571,4.7962,4.7962,4.816,4.8162,4.8163]}]]